Location: Rowland
(34.5359°N, 79.2929°W)
Time: 02:10:13
(UTC+00:00)

Transit 2A Rocket - Pass Details

Date: 11 October 2022
Orbit: 588 x 912 km, 66.7° (Epoch: 08 December)

Event Time Altitude Azimuth Distance (km) Brightness Sun altitude
Rises 18:30:02 0° 327° (NNW) 3,102 7.9 43.5°
Reaches altitude 10° 18:32:19 10° 323° (NW) 2,229 7.3 43.3°
Maximum altitude 18:37:18 54° 247° (WSW) 938 6.9 42.8°
Drops below altitude 10° 18:42:44 10° 171° (S) 2,427 8.3 42.1°
Sets 18:45:19 0° 167° (SSE) 3,403 8.8 41.8°
